Time,TemperatureF,DewpointF,PressureIn,WindDirection,WindDirectionDegrees,WindSpeedMPH,WindSpeedGustMPH,Humidity,HourlyPrecipIn,Conditions,Clouds,dailyrainin,SolarRadiationWatts/m^2,SoftwareType,DateUTC
2013-08-24 00:23:00,76.0,74.0,-100.00,SE,143,11.0,17.0,92,0.00,,,0.00,0.000000,,2013-08-24 05:23:00,
2013-08-24 00:33:00,76.0,74.0,-100.00,SE,143,11.0,17.0,92,0.00,,,0.00,0.000000,,2013-08-24 05:33:00,
2013-08-24 00:43:00,76.0,74.0,-100.00,SE,143,11.0,17.0,92,0.00,,,0.00,0.000000,,2013-08-24 05:43:00,
2013-08-24 00:53:00,76.0,74.0,-100.00,SE,143,11.0,17.0,92,0.00,,,0.00,0.000000,,2013-08-24 05:53:00,
2013-08-24 01:22:00,75.0,74.0,-100.00,SSE,151,11.0,16.0,96,0.00,,,0.00,0.000000,,2013-08-24 06:22:00,
2013-08-24 01:32:00,75.0,74.0,-100.00,SSE,151,11.0,16.0,96,0.00,,,0.00,0.000000,,2013-08-24 06:32:00,
2013-08-24 01:42:00,75.0,74.0,-100.00,SSE,151,11.0,16.0,96,0.00,,,0.00,0.000000,,2013-08-24 06:42:00,
2013-08-24 01:52:00,75.0,74.0,-100.00,SSE,151,11.0,16.0,96,0.00,,,0.00,0.000000,,2013-08-24 06:52:00,
2013-08-24 02:22:00,75.0,74.0,-100.00,SSE,152,11.0,16.0,97,0.00,,,0.00,0.000000,,2013-08-24 07:22:00,
2013-08-24 02:32:00,75.0,74.0,-100.00,SSE,152,11.0,16.0,97,0.00,,,0.00,0.000000,,2013-08-24 07:32:00,
2013-08-24 02:43:00,75.0,74.0,-100.00,SSE,152,11.0,16.0,97,0.00,,,0.00,0.000000,,2013-08-24 07:43:00,
2013-08-24 02:53:00,75.0,74.0,-100.00,SSE,152,11.0,16.0,97,0.00,,,0.00,0.000000,,2013-08-24 07:53:00,
2013-08-24 03:22:00,74.0,73.0,-100.00,SSE,156,10.0,16.0,97,0.00,,,0.00,0.000000,,2013-08-24 08:22:00,
2013-08-24 03:32:00,74.0,73.0,-100.00,SSE,156,10.0,16.0,97,0.00,,,0.00,0.000000,,2013-08-24 08:32:00,
2013-08-24 03:42:00,74.0,73.0,-100.00,SSE,156,10.0,16.0,97,0.00,,,0.00,0.000000,,2013-08-24 08:42:00,
2013-08-24 03:52:00,74.0,73.0,-100.00,SSE,156,10.0,16.0,97,0.00,,,0.00,0.000000,,2013-08-24 08:52:00,
2013-08-24 04:22:00,74.0,74.0,-100.00,SSE,162,11.0,16.0,99,0.00,,,0.00,0.000000,,2013-08-24 09:22:00,
2013-08-24 04:34:00,74.0,74.0,-100.00,SSE,162,11.0,16.0,99,0.00,,,0.00,0.000000,,2013-08-24 09:34:00,
2013-08-24 04:44:00,74.0,74.0,-100.00,SSE,162,11.0,16.0,99,0.00,,,0.00,0.000000,,2013-08-24 09:44:00,
2013-08-24 04:53:00,74.0,74.0,-100.00,SSE,162,11.0,16.0,99,0.00,,,0.00,0.000000,,2013-08-24 09:53:00,
2013-08-24 05:23:00,73.0,72.0,-100.00,SSE,162,11.0,17.0,98,0.00,,,0.00,0.000000,,2013-08-24 10:23:00,
2013-08-24 05:32:00,73.0,72.0,-100.00,SSE,162,11.0,17.0,98,0.00,,,0.00,0.000000,,2013-08-24 10:32:00,
2013-08-24 05:42:00,73.0,72.0,-100.00,SSE,162,11.0,17.0,98,0.00,,,0.00,0.000000,,2013-08-24 10:42:00,
2013-08-24 05:53:00,73.0,72.0,-100.00,SSE,162,11.0,17.0,98,0.00,,,0.00,0.000000,,2013-08-24 10:53:00,
2013-08-24 06:22:00,73.0,72.0,-100.00,SSE,163,11.0,16.0,98,0.00,,,0.00,0.000000,,2013-08-24 11:22:00,
2013-08-24 06:33:00,73.0,72.0,-100.00,SSE,163,11.0,16.0,98,0.00,,,0.00,0.000000,,2013-08-24 11:33:00,
2013-08-24 06:42:00,73.0,72.0,-100.00,SSE,163,11.0,16.0,98,0.00,,,0.00,0.000000,,2013-08-24 11:42:00,
2013-08-24 06:52:00,73.0,72.0,-100.00,SSE,163,11.0,16.0,98,0.00,,,0.00,0.000000,,2013-08-24 11:52:00,
2013-08-24 07:21:00,73.0,72.0,-100.00,SSE,159,9.0,16.0,97,0.00,,,0.00,0.000000,,2013-08-24 12:21:00,
2013-08-24 07:32:00,73.0,72.0,-100.00,SSE,159,9.0,16.0,97,0.00,,,0.00,0.000000,,2013-08-24 12:32:00,
2013-08-24 07:42:00,73.0,72.0,-100.00,SSE,159,9.0,16.0,97,0.00,,,0.00,0.000000,,2013-08-24 12:42:00,
2013-08-24 07:52:00,73.0,72.0,-100.00,SSE,159,9.0,16.0,97,0.00,,,0.00,0.000000,,2013-08-24 12:52:00,
2013-08-24 08:22:00,72.0,71.0,-100.00,SSE,162,10.0,14.0,98,0.00,,,0.00,0.000000,,2013-08-24 13:22:00,
2013-08-24 08:32:00,72.0,71.0,-100.00,SSE,162,10.0,14.0,98,0.00,,,0.00,0.000000,,2013-08-24 13:32:00,
2013-08-24 08:42:00,72.0,71.0,-100.00,SSE,162,10.0,14.0,98,0.00,,,0.00,0.000000,,2013-08-24 13:42:00,
2013-08-24 08:52:00,72.0,71.0,-100.00,SSE,162,10.0,14.0,98,0.00,,,0.00,0.000000,,2013-08-24 13:52:00,
2013-08-24 09:22:00,76.0,73.0,-100.00,South,174,14.0,19.0,90,0.00,,,0.00,0.000000,,2013-08-24 14:22:00,
2013-08-24 09:32:00,76.0,73.0,-100.00,South,174,14.0,19.0,90,0.00,,,0.00,0.000000,,2013-08-24 14:32:00,
2013-08-24 09:42:00,76.0,73.0,-100.00,South,174,14.0,19.0,90,0.00,,,0.00,0.000000,,2013-08-24 14:42:00,
2013-08-24 09:52:00,76.0,73.0,-100.00,South,174,14.0,19.0,90,0.00,,,0.00,0.000000,,2013-08-24 14:52:00,
2013-08-24 10:22:00,79.0,73.0,-100.00,South,174,15.0,22.0,81,0.00,,,0.00,0.000000,,2013-08-24 15:22:00,
2013-08-24 10:34:00,79.0,73.0,-100.00,South,174,15.0,22.0,81,0.00,,,0.00,0.000000,,2013-08-24 15:34:00,
2013-08-24 10:45:00,79.0,73.0,-100.00,South,174,15.0,22.0,81,0.00,,,0.00,0.000000,,2013-08-24 15:45:00,
2013-08-24 10:54:00,79.0,73.0,-100.00,South,174,15.0,22.0,81,0.00,,,0.00,0.000000,,2013-08-24 15:54:00,
2013-08-24 11:23:00,82.0,73.0,-100.00,South,174,13.0,21.0,74,0.00,,,0.00,0.000000,,2013-08-24 16:23:00,
2013-08-24 11:33:00,82.0,73.0,-100.00,South,174,13.0,21.0,74,0.00,,,0.00,0.000000,,2013-08-24 16:33:00,
2013-08-24 11:42:00,82.0,73.0,-100.00,South,174,13.0,21.0,74,0.00,,,0.00,0.000000,,2013-08-24 16:42:00,
2013-08-24 11:53:00,82.0,73.0,-100.00,South,174,13.0,21.0,74,0.00,,,0.00,0.000000,,2013-08-24 16:53:00,
2013-08-24 12:23:00,85.0,74.0,-100.00,South,172,14.0,20.0,69,0.00,,,0.00,0.000000,,2013-08-24 17:23:00,
2013-08-24 12:34:00,85.0,74.0,-100.00,South,172,14.0,20.0,69,0.00,,,0.00,0.000000,,2013-08-24 17:34:00,
2013-08-24 12:42:00,85.0,74.0,-100.00,South,172,14.0,20.0,69,0.00,,,0.00,0.000000,,2013-08-24 17:42:00,
2013-08-24 12:52:00,85.0,74.0,-100.00,South,172,14.0,20.0,69,0.00,,,0.00,0.000000,,2013-08-24 17:52:00,
2013-08-24 13:22:00,87.0,74.0,-100.00,SSE,167,15.0,20.0,65,0.00,,,0.00,0.000000,,2013-08-24 18:22:00,
2013-08-24 13:32:00,87.0,74.0,-100.00,SSE,167,15.0,20.0,65,0.00,,,0.00,0.000000,,2013-08-24 18:32:00,
2013-08-24 13:42:00,87.0,74.0,-100.00,SSE,167,15.0,20.0,65,0.00,,,0.00,0.000000,,2013-08-24 18:42:00,
2013-08-24 13:53:00,87.0,74.0,-100.00,SSE,167,15.0,20.0,65,0.00,,,0.00,0.000000,,2013-08-24 18:53:00,
2013-08-24 14:22:00,89.0,73.0,-100.00,SSE,165,15.0,23.0,60,0.00,,,0.00,0.000000,,2013-08-24 19:22:00,
2013-08-24 14:32:00,89.0,73.0,-100.00,SSE,165,15.0,23.0,60,0.00,,,0.00,0.000000,,2013-08-24 19:32:00,
2013-08-24 14:42:00,89.0,73.0,-100.00,SSE,165,15.0,23.0,60,0.00,,,0.00,0.000000,,2013-08-24 19:42:00,
2013-08-24 14:52:00,89.0,73.0,-100.00,SSE,165,15.0,23.0,60,0.00,,,0.00,0.000000,,2013-08-24 19:52:00,
2013-08-24 15:22:00,91.0,73.0,-100.00,SSE,160,15.0,22.0,55,0.00,,,0.00,0.000000,,2013-08-24 20:22:00,
2013-08-24 15:32:00,91.0,73.0,-100.00,SSE,160,15.0,22.0,55,0.00,,,0.00,0.000000,,2013-08-24 20:32:00,
2013-08-24 15:42:00,91.0,73.0,-100.00,SSE,160,15.0,22.0,55,0.00,,,0.00,0.000000,,2013-08-24 20:42:00,
2013-08-24 15:52:00,91.0,73.0,-100.00,SSE,160,15.0,22.0,55,0.00,,,0.00,0.000000,,2013-08-24 20:52:00,
2013-08-24 16:22:00,91.0,73.0,-100.00,SSE,152,18.0,25.0,55,0.00,,,0.00,0.000000,,2013-08-24 21:22:00,
2013-08-24 16:34:00,91.0,73.0,-100.00,SSE,152,18.0,25.0,55,0.00,,,0.00,0.000000,,2013-08-24 21:34:00,
2013-08-24 16:43:00,91.0,73.0,-100.00,SSE,152,18.0,25.0,55,0.00,,,0.00,0.000000,,2013-08-24 21:43:00,
2013-08-24 16:54:00,91.0,73.0,-100.00,SSE,152,18.0,25.0,55,0.00,,,0.00,0.000000,,2013-08-24 21:54:00,
2013-08-24 17:24:00,90.0,73.0,-100.00,SSE,149,16.0,24.0,58,0.00,,,-99.99,0.000000,,2013-08-24 22:24:00,
2013-08-24 17:33:00,90.0,73.0,-100.00,SSE,149,16.0,24.0,58,0.00,,,-99.99,0.000000,,2013-08-24 22:33:00,
2013-08-24 17:43:00,90.0,73.0,-100.00,SSE,149,16.0,24.0,58,0.00,,,-99.99,0.000000,,2013-08-24 22:43:00,
2013-08-24 17:53:00,90.0,73.0,-100.00,SSE,149,16.0,24.0,58,0.00,,,-99.99,0.000000,,2013-08-24 22:53:00,
2013-08-24 18:22:00,89.0,73.0,-100.00,SSE,152,16.0,24.0,60,0.00,,,0.00,0.000000,,2013-08-24 23:22:00,
2013-08-24 18:34:00,89.0,73.0,-100.00,SSE,152,16.0,24.0,60,0.00,,,0.00,0.000000,,2013-08-24 23:34:00,
2013-08-24 18:43:00,89.0,73.0,-100.00,SSE,152,16.0,24.0,60,0.00,,,0.00,0.000000,,2013-08-24 23:43:00,
2013-08-24 18:53:00,89.0,73.0,-100.00,SSE,152,16.0,24.0,60,0.00,,,0.00,0.000000,,2013-08-24 23:53:00,
2013-08-24 19:22:00,86.0,73.0,-100.00,SSE,151,12.0,19.0,66,0.00,,,0.00,0.000000,,2013-08-25 00:22:00,
2013-08-24 19:32:00,86.0,73.0,-100.00,SSE,151,12.0,19.0,66,0.00,,,0.00,0.000000,,2013-08-25 00:32:00,
2013-08-24 19:42:00,86.0,73.0,-100.00,SSE,151,12.0,19.0,66,0.00,,,0.00,0.000000,,2013-08-25 00:42:00,
2013-08-24 19:52:00,86.0,73.0,-100.00,SSE,151,12.0,19.0,66,0.00,,,0.00,0.000000,,2013-08-25 00:52:00,
2013-08-24 20:22:00,82.0,71.0,-100.00,SSE,147,10.0,15.0,70,0.00,,,0.00,0.000000,,2013-08-25 01:22:00,
2013-08-24 20:32:00,82.0,71.0,-100.00,SSE,147,10.0,15.0,70,0.00,,,0.00,0.000000,,2013-08-25 01:32:00,
2013-08-24 20:42:00,82.0,71.0,-100.00,SSE,147,10.0,15.0,70,0.00,,,0.00,0.000000,,2013-08-25 01:42:00,
2013-08-24 20:52:00,82.0,71.0,-100.00,SSE,147,10.0,15.0,70,0.00,,,0.00,0.000000,,2013-08-25 01:52:00,
2013-08-24 21:22:00,77.0,70.0,-100.00,SE,142,7.0,12.0,80,0.00,,,0.00,0.000000,,2013-08-25 02:22:00,
2013-08-24 21:33:00,77.0,70.0,-100.00,SE,142,7.0,12.0,80,0.00,,,0.00,0.000000,,2013-08-25 02:33:00,
2013-08-24 21:42:00,77.0,70.0,-100.00,SE,142,7.0,12.0,80,0.00,,,0.00,0.000000,,2013-08-25 02:42:00,
2013-08-24 21:52:00,77.0,70.0,-100.00,SE,142,7.0,12.0,80,0.00,,,0.00,0.000000,,2013-08-25 02:52:00,
2013-08-24 22:23:00,76.0,71.0,-100.00,SSE,149,8.0,11.0,85,0.00,,,0.00,0.000000,,2013-08-25 03:23:00,
2013-08-24 22:34:00,76.0,71.0,-100.00,SSE,149,8.0,11.0,85,0.00,,,0.00,0.000000,,2013-08-25 03:34:00,
2013-08-24 22:44:00,76.0,71.0,-100.00,SSE,149,8.0,11.0,85,0.00,,,0.00,0.000000,,2013-08-25 03:44:00,
2013-08-24 22:54:00,76.0,71.0,-100.00,SSE,149,8.0,11.0,85,0.00,,,0.00,0.000000,,2013-08-25 03:54:00,
2013-08-24 23:25:00,76.0,73.0,-100.00,SE,146,9.0,13.0,89,0.00,,,0.00,0.000000,,2013-08-25 04:25:00,
2013-08-24 23:34:00,76.0,73.0,-100.00,SE,146,9.0,13.0,89,0.00,,,0.00,0.000000,,2013-08-25 04:34:00,
2013-08-24 23:43:00,76.0,73.0,-100.00,SE,146,9.0,13.0,89,0.00,,,0.00,0.000000,,2013-08-25 04:43:00,
2013-08-24 23:54:00,76.0,73.0,-100.00,SE,146,9.0,13.0,89,0.00,,,0.00,0.000000,,2013-08-25 04:54:00,